sat.trackr.live / text

‹ back to catalog

UNKNOWN

NORAD 84932

UNKNOWN UNKNOWN UNKNOWN

§ Identity

Operator
Country
Launch date
Launch site
Launch vehicle
Mass (kg)
RCS (m²)

External: N2YO · Heavens-Above

§ Orbital elements

Epoch: 2026-05-24T04:00:29.524032Z

Period
479.66 min
Inclination
2.0388°
Eccentricity
0.6569639
Mean motion
3.00211898 rev/d
Perigee alt
584.8 km
Apogee alt
27,254.7 km
Semi-major
20,297.8 km
B*
2.0724e-3
RAAN
148.4041°
Arg perigee
239.0135°
Mean anomaly
128.8814°
Rev number
13,666

§ Raw data

UNKNOWN1 84932U          26144.16700838  .00000149  00000+0  20724-2 0  99962 84932   2.0388 148.4041 6569639 239.0135 128.8814  3.00211898136664

JSON: /api/v1/satellites/84932 · /tle

For live sub-satellite position, see the globe view (requires WebGL).

§ Visibility from observer

Set your observer location to see the next 7 days of passes ≥ 10°. The values pass through the URL so the page stays shareable.

No JS? Fill the form by hand. The geolocation button needs JavaScript.